Torna al catalogo

METEOR 1-22

AttivoMeteoPO
NORAD 8293·PAYLOAD·🇷🇺 Russia

Lanciato Sep 18, 1975 da Plesetsk Cosmodrome

Loading…

Prossimi Passaggi (prossime 24 ore)

TLE

AggiornatoSource: Space-Track

Epoca: Sep 14, 2026, 10:37 UTC

1 08293U 75087A   26257.44291482  .00000002  00000-0 -58844-5 0  9992
2 08293  81.2524 258.1531 0075818  73.8021 287.1477 14.12941235625675

Traccia METEOR 1-22 in tempo reale con AllMySat

Download on the App Store